Regional Weather Roundup
Issued by NWS

Home | Current Version | Previous Version | Graphics & Text | Print | Product List | Glossary On
Versions: 1 2 3 4 5 6 7 8 9 10 11 12 13 14 15 16 17 18 19 20 21 22 23 24 25 26 27 28 29 30 31 32 33 34 35 36 37 38 39 40 41 42 43 44 45 46 47 48 49 50
000
ASUS43 KLMK 041502
RWRKY
KENTUCKY REGIONAL WEATHER ROUNDUP
NATIONAL WEATHER SERVICE LOUISVILLE KY
1100 AM EDT FRI SEP 04 2015

NOTE "FAIR" INDICATES FEW OR NO CLOUDS BELOW 12,000 FEET
WITH NO SIGNIFICANT WEATHER AND/OR OBSTRUCTIONS TO VISIBILITY.

KYZ001>023-026-027-061>063-070>075-041600-
WESTERN AND SOUTH CENTRAL KENTUCKY

CITY           SKY/WX    TMP DP  RH WIND       PRES   REMARKS
PADUCAH        SUNNY     85  71  63 SE5       30.04R HX  90
HENDERSON      SUNNY     84  68  58 CALM      30.03S
OWENSBORO      SUNNY     87  71  58 CALM      30.05S HX  92
HOPKINSVILLE   SUNNY     83  70  62 CALM      30.05S
BOWLING GREEN  SUNNY     83  70  64 CALM      30.06S
GLASGOW        NOT AVBL
$$

KYZ024-025-028>034-038-045-046-053-041600-
NORTH CENTRAL KENTUCKY

CITY           SKY/WX    TMP DP  RH WIND       PRES   REMARKS
LOUISVILLE/SDF SUNNY     87  67  51 CALM      30.05R HAZE    HX  90
LOUISVILLE/LOU SUNNY     86  68  54 CALM      30.06R
FORT KNOX      SUNNY     86  67  54 CALM      30.05R
$$

KYZ035>037-039>044-047>052-055>060-089>105-041600-
NORTHEAST KENTUCKY

CITY           SKY/WX    TMP DP  RH WIND       PRES   REMARKS
LEXINGTON      SUNNY     86  67  52 VRB3      30.08R
COVINGTON      MOSUNNY   85  67  54 SW7       30.06R
FRANKFORT      SUNNY     85  66  53 N3        30.06R
$$

KYZ054-064>069-076>088-106>120-041600-
SOUTHEAST KENTUCKY

CITY           SKY/WX    TMP DP  RH WIND       PRES   REMARKS
JACKSON        SUNNY     80  70  71 CALM      30.10R
LONDON         SUNNY     83  66  56 VRB3      30.09S
SOMERSET       NOT AVBL
MIDDLESBORO    PTSUNNY   70  68  92 CALM      30.11S
MONTICELLO     SUNNY     83  72  69 CALM      30.11R
$$



USA.gov is the U.S. government's official web portal to all federal, state and local government web resources and services.